Weather History for KSTK - May, 2014

Change the Weather History Date:

Monday, May 5, 2014

  Actual Average Record
Temperature  
Mean Temperature 64 °F -  
Max Temperature 86 °F 70 °F 86 °F (2014)
Min Temperature 41 °F 41 °F 30 °F (2013)
Degree Days  
Heating Degree Days 2    
Growing Degree Days 14 (Base 50)    
Moisture  
Dew Point 44 °F    
Average Humidity 58    
Maximum Humidity 100    
Minimum Humidity 13    
Precipitation  
Precipitation 0.00 in - - ()
Sea Level Pressure  
Sea Level Pressure 29.80 in    
Wind  
Wind Speed 6 mph (SE)    
Max Wind Speed 18 mph    
Max Gust Speed 26 mph    
Visibility 9 miles    
Events      
Averages and records for this station are not official NWS values.
T = Trace of Precipitation, MM = Missing Value Source: NWS Daily Summary

Daily Weather History Graph

Daily Weather History Graph

Search for Another Location

Airport or City:

Trip Planner

Search our weather history database for the weather conditions in past years. The results will help you decide how hot, cold, wet, or windy it might be!

Date:

Astronomy

May. 05, 2014 Rise Set
Actual Time 5:46 AM MDT 7:53 PM MDT
Civil Twilight 5:16 AM MDT 8:23 PM MDT
Nautical Twilight 4:40 AM MDT 9:00 PM MDT
Astronomical Twilight 4:00 AM MDT 9:40 PM MDT
Moon 11:08 AM MDT (5/5) 12:38 AM MDT (5/5)
Length of Visible Light 15h 06m
Length of Day
14h 06m
Waxing Crescent, 37% of the Moon is Illuminated
May 5
Waxing Crescent
May 6
First Quarter
May 14
Full
May 21
Last Quarter
May 28
New

Hourly Weather History & Observations

Time (MDT) Temp. Windchill Dew Point Humidity Pressure Visibility Wind Dir Wind Speed Gust Speed Precip Events Conditions
12:10 AM 53.6 °F - 46.4 °F 77% 29.82 in 10.0 mi North 4.6 mph - N/A   Clear
12:30 AM 51.8 °F - 44.6 °F 76% 29.82 in 10.0 mi Calm Calm - N/A   Clear
12:50 AM 50.0 °F - 44.6 °F 82% 29.82 in 10.0 mi NE 3.5 mph - N/A   Clear
1:10 AM 50.0 °F - 44.6 °F 82% 29.81 in 10.0 mi Calm Calm - N/A   Clear
1:30 AM 50.0 °F - 44.6 °F 82% 29.82 in 10.0 mi NE 3.5 mph - N/A   Clear
1:50 AM 50.0 °F - 44.6 °F 82% 29.84 in 10.0 mi NE 8.1 mph - N/A   Clear
2:10 AM 50.0 °F - 44.6 °F 82% 29.84 in 10.0 mi NNE 8.1 mph - N/A   Clear
2:30 AM 48.2 °F - 44.6 °F 87% 29.84 in 10.0 mi ENE 4.6 mph - N/A   Clear
2:50 AM 46.4 °F - 42.8 °F 87% 29.84 in 10.0 mi Calm Calm - N/A   Clear
3:10 AM 46.4 °F 45.2 °F 44.6 °F 93% 29.84 in 10.0 mi NE 3.5 mph - N/A   Clear
3:30 AM 44.6 °F 43.1 °F 42.8 °F 93% 29.85 in 10.0 mi North 3.5 mph - N/A   Clear
3:50 AM 44.6 °F 42.2 °F 42.8 °F 93% 29.85 in 10.0 mi North 4.6 mph - N/A   Clear
4:10 AM 44.6 °F 43.1 °F 42.8 °F 93% 29.86 in 10.0 mi NNW 3.5 mph - N/A   Clear
4:30 AM 42.8 °F 38.0 °F 41.0 °F 93% 29.85 in 10.0 mi North 8.1 mph - N/A   Clear
4:50 AM 42.8 °F 41.1 °F 41.0 °F 93% 29.86 in 7.0 mi NNW 3.5 mph - N/A   Clear
5:10 AM 41.0 °F 39.0 °F 41.0 °F 100% 29.86 in 7.0 mi NNW 3.5 mph - N/A   Clear
5:30 AM 41.0 °F 37.1 °F 41.0 °F 100% 29.86 in 7.0 mi North 5.8 mph - N/A   Clear
5:50 AM 41.0 °F 38.0 °F 39.2 °F 93% 29.86 in 5.0 mi NNW 4.6 mph - N/A   Clear
6:10 AM 41.0 °F 39.0 °F 41.0 °F 100% 29.87 in 5.0 mi North 3.5 mph - N/A   Clear
6:30 AM 41.0 °F - 37.4 °F 87% 29.87 in 4.0 mi Calm Calm - N/A   Clear
6:50 AM 42.8 °F - 42.8 °F 100% 29.88 in 5.0 mi Calm Calm - N/A   Clear
7:10 AM 44.6 °F 43.1 °F 42.8 °F 93% 29.89 in 5.0 mi WNW 3.5 mph - N/A   Clear
7:30 AM 50.0 °F - 46.4 °F 87% 29.89 in 5.0 mi Calm Calm - N/A   Clear
7:50 AM 51.8 °F - 44.6 °F 76% 29.89 in 10.0 mi West 3.5 mph - N/A   Clear
8:10 AM 53.6 °F - 46.4 °F 77% 29.88 in 10.0 mi Calm Calm - N/A   Clear
8:30 AM 55.4 °F - 46.4 °F 72% 29.88 in 10.0 mi Calm Calm - N/A   Clear
8:50 AM 55.4 °F - 46.4 °F 72% 29.89 in 10.0 mi SSE 3.5 mph - N/A   Clear
9:10 AM 59.0 °F - 46.4 °F 63% 29.89 in 10.0 mi Calm Calm - N/A   Clear
9:30 AM 60.8 °F - 48.2 °F 63% 29.89 in 10.0 mi SE 5.8 mph - N/A   Clear
9:50 AM 62.6 °F - 48.2 °F 59% 29.88 in 10.0 mi NE 5.8 mph - N/A   Clear
10:10 AM 62.6 °F - 48.2 °F 59% 29.89 in 10.0 mi East 4.6 mph - N/A   Clear
10:30 AM 64.4 °F - 50.0 °F 59% 29.88 in 10.0 mi SE 4.6 mph - N/A   Clear
10:50 AM 68.0 °F - 50.0 °F 52% 29.88 in 10.0 mi SSE 4.6 mph - N/A   Clear
11:10 AM 69.8 °F - 50.0 °F 49% 29.88 in 10.0 mi South 4.6 mph - N/A   Clear
11:30 AM 69.8 °F - 50.0 °F 49% 29.86 in 10.0 mi South 5.8 mph - N/A   Clear
12:10 PM 71.6 °F - 51.8 °F 50% 29.85 in 10.0 mi South 6.9 mph - N/A   Clear
12:30 PM 73.4 °F - 50.0 °F 44% 29.84 in 10.0 mi South 6.9 mph - N/A   Clear
12:50 PM 77.0 °F - 50.0 °F 39% 29.83 in 10.0 mi South 5.8 mph - N/A   Clear
1:10 PM 77.0 °F - 48.2 °F 36% 29.82 in 10.0 mi SSE 6.9 mph - N/A   Clear
1:30 PM 80.6 °F - 46.4 °F 30% 29.81 in 10.0 mi South 8.1 mph - N/A   Clear
1:50 PM 80.6 °F - 44.6 °F 28% 29.80 in 10.0 mi South 4.6 mph - N/A   Clear
2:10 PM 82.4 °F - 44.6 °F 26% 29.79 in 10.0 mi SW 6.9 mph - N/A   Clear
2:30 PM 86.0 °F - 32.0 °F 14% 29.78 in 10.0 mi SSW 9.2 mph - N/A   Clear
2:50 PM 86.0 °F - 32.0 °F 14% 29.77 in 10.0 mi South 5.8 mph - N/A   Clear
3:10 PM 86.0 °F - 32.0 °F 14% 29.76 in 10.0 mi SW 12.7 mph 16.1 mph N/A   Clear
3:30 PM 86.0 °F - 30.2 °F 13% 29.75 in 10.0 mi SSW 9.2 mph 16.1 mph N/A   Clear
3:50 PM 82.4 °F - 41.0 °F 23% 29.74 in 10.0 mi South 13.8 mph 18.4 mph N/A   Clear
4:10 PM 86.0 °F - 39.2 °F 19% 29.73 in 10.0 mi SE 10.4 mph - N/A   Clear
4:30 PM 84.2 °F - 37.4 °F 19% 29.72 in 10.0 mi SSE 5.8 mph - N/A   Clear
4:50 PM 86.0 °F - 39.2 °F 19% 29.72 in 10.0 mi South 11.5 mph 17.3 mph N/A   Clear
5:10 PM 82.4 °F - 39.2 °F 21% 29.71 in 10.0 mi SSE 10.4 mph 18.4 mph N/A   Clear
5:30 PM 82.4 °F - 41.0 °F 23% 29.71 in 10.0 mi SSE 13.8 mph - N/A   Clear
5:50 PM 82.4 °F - 42.8 °F 25% 29.71 in 10.0 mi SSE 16.1 mph 21.9 mph N/A   Clear
6:10 PM 80.6 °F - 41.0 °F 24% 29.70 in 10.0 mi SSE 13.8 mph 17.3 mph N/A   Clear
6:30 PM 78.8 °F - 46.4 °F 32% 29.70 in 10.0 mi SE 13.8 mph 23.0 mph N/A   Clear
6:50 PM 77.0 °F - 46.4 °F 34% 29.70 in 10.0 mi SE 15.0 mph - N/A   Clear
7:10 PM 75.2 °F - 46.4 °F 36% 29.70 in 10.0 mi SE 17.3 mph 21.9 mph N/A   Clear
7:30 PM 73.4 °F - 46.4 °F 38% 29.70 in 10.0 mi SE 18.4 mph 24.2 mph N/A   Clear
7:50 PM 71.6 °F - 46.4 °F 41% 29.70 in 10.0 mi SE 13.8 mph 21.9 mph N/A   Clear
8:10 PM 71.6 °F - 46.4 °F 41% 29.70 in 10.0 mi SE 16.1 mph 23.0 mph N/A   Clear
8:30 PM 69.8 °F - 46.4 °F 43% 29.70 in 10.0 mi SE 16.1 mph 23.0 mph N/A   Clear
8:50 PM 69.8 °F - 46.4 °F 43% 29.71 in 10.0 mi SE 18.4 mph 24.2 mph N/A   Clear
9:10 PM 68.0 °F - 46.4 °F 46% 29.71 in 10.0 mi SE 17.3 mph 23.0 mph N/A   Clear
9:30 PM 66.2 °F - 46.4 °F 49% 29.71 in 10.0 mi ESE 12.7 mph - N/A   Clear
9:50 PM 64.4 °F - 46.4 °F 52% 29.72 in 10.0 mi ESE 5.8 mph - N/A   Clear
10:10 PM 62.6 °F - 46.4 °F 55% 29.71 in 10.0 mi ESE 10.4 mph 17.3 mph N/A   Clear
10:30 PM 62.6 °F - 46.4 °F 55% 29.70 in 10.0 mi SE 17.3 mph 25.3 mph N/A   Clear
10:50 PM 62.6 °F - 46.4 °F 55% 29.71 in 10.0 mi SE 17.3 mph 26.5 mph N/A   Clear
11:10 PM 60.8 °F - 46.4 °F 59% 29.70 in 10.0 mi SSE 16.1 mph 25.3 mph N/A   Clear
11:30 PM 60.8 °F - 46.4 °F 59% 29.70 in 10.0 mi SSE 11.5 mph 23.0 mph N/A   Clear
11:50 PM 60.8 °F - 46.4 °F 59% 29.70 in 10.0 mi SSE 12.7 mph 23.0 mph N/A   Clear